CZ-6A DEB, 64649

Orbit data source: Space-Track

CZ-6A DEB, 64649 is space debris in LEO originally from a launch on Tue, 06 Aug 2024 UTC launched from the Taiyaun Space Center, China (TSC). Debris objects in space refer to the collection of defunct objects orbiting the Earth. Examples of debris include non-operational satellites, rocket bodies, and fragments generated from explosions, collisions, or faulty payload assembly.

Loading next visibility...
Identifier
64649, 2024-140AEP
Orbit
LEO
Country
Flag of CNCN / PRC
Related business
Manufacturer
SAST
Mission
Spacecraft
Bus & Motor
Unknown
Mass
Unknown
Launch date (UTC)
2024-08-06 (2 years ago)
Launch vehicle
Unknown
Launch site
Taiyaun Space Center, China (TSC)
Object type
Payload
Rocket body
Debris
Shape & HBR
Unknown shape, 0.1 m
Radar Cross Section
Small (<0.1 m²)

Expand to show TLE details & history
Last TLE update: 7 hours ago

TLE from 7 hours ago
0 CZ-6A DEB
1 64649U 24140AEP 26118.92468815  .00005779  00000-0  13843-2 0  9990
2 64649  88.9171 270.7701 0058923 107.5809 253.1847 14.52355803 82125
Epoch: 2026-04-28T22:11Z
TLE epoch observation values (Epoch: 2026-04-28T22:11:33.056Z)
Latitude
-0.00006°
Longitude
80.98935°
Altitude
733.388 km
Speed
7.482 km/s
True Right ascension
18h 03m 04s
True Declination
0° 00' 00"
Sunlit
Object was in full shadow at epoch
Visualization orbit readout
Latitude
Unknown
Longitude
Unknown
Altitude
Unknown
Speed
Unknown
Apparent Right ascension
Unknown
Apparent Declination
Unknown
Sunlit
N/A
Visualization observer readout
Local Sidereal Time
12:37:15
Azimuth
Unknown
Elevation
Unknown
Doppler factor
Unknown
Orbital elements
Apogee altitude
756.664 km
Perigee altitude
673.076 km
Semi-major axis
7,093.007 km
Eccentricity
0.00589
Inclination
88.9171°
RAAN
270.7701°
Arg. of periapsis
107.5809°
True anomaly
252.53975°
Mean anomaly
253.1847°
Eccentric anomaly
252.86209°
Mean motion
3.63327 °/min
Orbital period
99.08 mins
BSTAR
0.0013843
Loading maneuver chart data...
Computing Atmospheric mass density...
Loading historical data...
Loading historical data...
Loading historical data...
Loading historical data...
Loading historical data...
Loading historical data...
Loading historical data...

Documentation

Showing up to 5 results
|